CAPE
0 0 0 0 0 0 0 0 38 164 239 499 325 370 520 398 388 324 229 196 184 158 283 418 20 44 11 138 323 308 323 166 160 278 241 392 621 687 246 0 26 10 22 175
0 0 0 0 0 0 0 0 3 66 325 332 383 203 90 54 221 330 263 229 163 65 94 40 41 24 10 0 70 105 347 218 214 99 72 434 514 642 827 276 74 69 108 160
0 0 0 0 0 0 0 0 0 10 371 175 187 59 263 43 0 0 108 324 199 131 162 63 61 0 0 37 64 154 433 338 106 313 600 865 873 857 881 964 917 884 721 523
0 0 0 0 0 0 0 0 0 111 64 5 49 24 0 7 0 0 20 183 338 193 221 226 198 45 0 70 352 352 751 315 231 278 119 543 468 519 485 369 697 781 1229 1026
0 0 0 0 0 0 0 0 0 43 2 64 79 12 0 0 6 0 5 25 459 302 222 393 328 206 94 92 533 606 917 664 561 88 0 0 383 353 541 202 104 395 241 160
0 0 0 0 0 0 0 0 0 0 2 0 0 22 0 25 7 2 11 70 103 344 243 389 438 330 0 14 237 119 527 664 936 247 0 0 16 220 221 152 54 167 0 0
0 0 0 0 0 0 0 0 0 0 0 0 0 1 34 0 1 8 34 232 194 59 259 349 371 333 8 27 80 43 10 311 902 554 68 104 224 204 222 120 141 0 0 0
0 0 0 0 0 0 0 0 0 0 0 0 0 1 0 0 9 9 8 164 32 6 245 333 402 362 218 0 0 6 77 478 524 418 240 122 253 251 135 8 7 0 0 0
0 0 0 0 0 0 0 0 0 0 0 0 0 0 0 0 3 0 0 0 0 0 385 370 420 346 138 50 163 508 671 263 363 134 182 282 8 0 0 0 0 0 0 0
0 0 0 0 0 0 0 0 0 0 0 0 0 0 0 0 1 7 13 7 20 0 276 505 388 231 26 213 1302 1169 555 436 468 453 306 12 0 0 0 0 0 0 0 0
0 0 0 0 0 0 0 0 0 0 0 0 0 0 0 0 0 0 3 2 0 29 7 500 368 289 239 1125 1469 1034 639 672 428 347 48 0 0 0 0 0 0 0 0 0
0 0 0 0 0 0 0 0 0 0 0 0 0 0 0 0 0 0 0 0 0 28 132 310 644 1434 1341 1419 1460 1065 756 703 367 77 0 0 0 0 0 0 0 0 0 0
0 0 0 0 0 0 0 0 0 0 0 0 0 0 0 0 0 0 4 0 9 321 217 1031 1659 1595 1465 1382 1273 887 636 450 102 0 0 0 0 0 0 0 0 0 0 0
0 0 0 0 0 0 0 0 0 0 0 0 0 0 0 56 0 0 0 292 263 436 606 1507 1574 1545 1303 1158 841 538 340 63 0 0 0 0 0 0 0 0 0 0 0 0
0 0 0 0 0 0 0 0 0 0 0 0 0 0 0 2 0 7 0 905 680 688 1244 1364 1378 1240 1036 687 438 222 31 0 0 0 0 0 0 0 0 0 0 0 0 0
0 5 0 0 0 0 0 0 0 0 0 0 0 0 0 0 0 0 54 1257 1048 1275 1326 1262 1213 992 695 388 211 19 0 0 0 0 0 0 0 0 0 0 0 0 0 0
0 0 0 0 0 0 0 0 0 0 31 0 5 0 0 0 0 0 60 1435 1308 1390 1405 1254 1105 900 687 425 156 0 0 0 0 0 0 0 0 0 0 0 0 0 0 0
0 0 0 5 0 0 0 0 0 220 227 95 43 42 86 0 0 0 32 1234 1495 1418 1442 1270 1050 729 482 193 15 0 0 0 0 0 0 0 0 0 0 0 0 0 0 0
0 0 2 15 0 0 0 28 29 109 153 62 30 23 35 135 0 0 118 1321 1467 1378 1358 1115 796 379 45 0 0 0 0 0 0 0 0 0 0 0 0 0 0 0 0 0
0 0 4 0 1 0 12 2 4 67 98 77 15 32 50 264 0 0 0 914 1265 1331 1037 739 319 1 0 0 0 0 0 0 0 0 0 0 0 0 0 0 0 0 0 0
44 0 0 0 0 0 86 53 187 249 160 31 0 13 78 609 37 464 324 1214 1200 1063 727 431 153 2 4 0 0 0 0 0 0 0 0 0 0 0 0 0 0 0 0 0
143 167 0 0 0 4 16 89 156 105 11 4 16 40 101 417 93 221 1143 1108 863 696 501 341 147 2 2 0 0 0 0 0 0 0 0 0 0 0 0 0 0 0 0 0
304 76 132 32 58 4 14 213 172 36 0 0 39 22 144 781 933 1042 1153 965 698 617 486 277 141 0 0 0 0 0 0 0 0 0 0 0 0 0 0 0 0 0 0 0
0 2 82 26 1 12 0 87 116 1 0 0 2 30 437 905 1110 965 877 825 775 730 622 304 73 2 0 0 0 0 0 0 0 0 0 0 0 0 0 0 0 0 0 0
0 60 22 15 13 4 42 102 39 6 0 5 4 0 701 867 730 937 660 310 306 494 173 34 0 0 0 0 0 0 0 0 0 0 0 0 0 0 0 0 0 0 0 0
1 0 0 0 0 14 39 35 0 108 59 12 2 0 337 699 402 333 572 189 115 0 0 0 0 0 0 0 0 0 0 0 0 0 0 0 0 0 0 0 0 0 0 0
CIN
0 0 0 0 0 0 0 0 -152 -149 -213 -213 -245 -243 -290 -283 -284 -252 -271 -295 -377 -327 -263 -230 -328 -317 -445 -274 -226 -223 -222 -270 -228 -212 -197 -155 -105 -114 -191 0 -267 -285 -230 -200
0 0 0 0 0 0 0 0 -186 -166 -174 -152 -249 -247 -411 -463 -350 -282 -280 -256 -315 -363 -373 -407 -428 -431 -488 0 -384 -292 -208 -257 -259 -275 -289 -154 -149 -127 -106 -190 -300 -274 -251 -216
0 0 0 0 0 0 0 0 0 -157 -118 -237 -272 -237 -302 -382 0 0 -418 -223 -257 -352 -393 -453 -427 0 -43 -469 -397 -292 -237 -241 -324 -249 -181 -142 -127 -93 -92 -98 -111 -97 -93 -114
0 0 0 0 0 0 0 0 0 -89 -144 -41 -189 -96 0 -484 0 0 -564 -462 -318 -340 -355 -439 -424 -424 0 -433 -372 -299 -272 -327 -327 -278 -252 -158 -175 -132 -134 -139 -106 -103 -62 -81
0 0 0 0 0 0 0 0 0 -145 -11 -137 -201 -102 0 0 -147 0 -622 -572 -397 -384 -400 -473 -408 -399 -367 -450 -350 -337 -273 -302 -284 -399 0 0 -166 -188 -123 -133 -169 -142 -189 -186
0 0 0 0 0 0 0 0 0 0 -102 0 0 -148 0 -341 -289 -221 -527 -509 -478 -408 -416 -516 -423 -454 0 -265 -496 -557 -347 -299 -225 -350 0 0 -269 -198 -189 -181 -208 -195 0 0
0 0 0 0 0 0 0 0 0 0 0 0 0 -89 -20 0 -134 -372 -421 -438 -503 -524 -432 -531 -506 -543 -434 -643 -591 -654 -250 -398 -233 -263 -398 -395 -249 -231 -212 -248 -191 0 0 0
0 0 0 0 0 0 0 0 0 0 0 0 0 -34 0 -131 -492 -492 -94 -520 -596 -561 -513 -546 -540 -565 -609 0 0 -679 -643 -351 -335 -326 -385 -441 -288 -237 -334 -340 -67 0 0 0
0 0 0 0 0 0 0 0 0 0 0 0 0 0 0 -68 -238 -17 0 0 0 0 -540 -561 -613 -606 -732 -730 -613 -455 -368 -402 -376 -500 -442 -341 -555 0 0 0 0 0 0 0
0 0 0 0 0 0 0 0 0 0 0 0 0 0 0 0 -112 -505 -545 -463 -635 -40 -617 -569 -654 -675 -783 -613 -319 -298 -392 -336 -292 -288 -324 -234 0 0 0 0 0 0 0 0
0 0 0 0 0 0 0 0 0 0 0 0 0 0 0 0 0 0 -438 -236 0 -645 -99 -633 -629 -644 -660 -396 -274 -304 -320 -269 -294 -303 -584 0 0 0 0 0 0 0 0 0
0 0 0 0 0 0 0 0 0 0 0 0 0 0 0 0 0 0 0 0 0 -690 -716 -637 -594 -490 -464 -364 -269 -295 -307 -255 -327 -529 0 0 0 0 0 0 0 0 0 0
0 0 0 0 0 0 0 0 0 0 0 0 0 0 0 0 0 0 -462 0 -500 -666 -708 -560 -405 -456 -431 -371 -324 -356 -352 -334 -478 0 0 0 0 0 0 0 0 0 0 0
0 0 0 0 0 0 0 0 0 0 0 0 0 0 0 -218 0 0 0 -652 -706 -684 -672 -520 -460 -462 -453 -426 -447 -435 -445 -557 0 0 0 0 0 0 0 0 0 0 0 0
0 0 0 0 0 0 0 0 0 0 0 0 0 0 0 -52 0 -209 0 -568 -632 -670 -617 -581 -553 -542 -506 -528 -553 -564 -691 0 0 0 0 0 0 0 0 0 0 0 0 0
0 -74 0 0 0 0 0 0 0 0 0 0 0 0 0 0 0 0 -616 -536 -580 -636 -648 -615 -559 -556 -578 -623 -644 -784 0 0 0 0 0 0 0 0 0 0 0 0 0 0
0 0 0 0 0 0 0 0 0 0 -305 0 -67 0 0 0 0 0 -653 -474 -521 -612 -657 -658 -618 -601 -594 -613 -730 0 0 0 0 0 0 0 0 0 0 0 0 0 0 0
0 0 0 -227 0 0 0 0 0 -247 -344 -454 -470 -475 -552 0 0 0 -535 -437 -476 -550 -619 -633 -598 -526 -544 -671 -823 0 0 0 0 0 0 0 0 0 0 0 0 0 0 0
0 0 -160 -166 0 0 0 -313 -433 -295 -254 -520 -566 -658 -724 -633 0 0 -611 -485 -462 -553 -546 -548 -552 -641 -611 0 0 0 0 0 0 0 0 0 0 0 0 0 0 0 0 0
0 0 -88 0 -164 0 -236 -394 -210 -412 -163 -448 -663 -748 -901 -719 0 0 0 -553 -537 -603 -665 -701 -774 -63 0 0 0 0 0 0 0 0 0 0 0 0 0 0 0 0 0 0
-130 0 0 -21 0 0 -345 -493 -364 -158 -243 -500 0 -782 -894 -582 -273 -677 -812 -579 -632 -678 -763 -857 -951 -65 -857 0 0 0 0 0 0 0 0 0 0 0 0 0 0 0 0 0
-87 -127 -33 0 0 -94 -391 -362 -217 -306 -582 -253 -718 -723 -793 -678 -863 -770 -589 -664 -784 -795 -865 -900 -933 -407 -930 0 0 0 0 0 0 0 0 0 0 0 0 0 0 0 0 0
-45 -153 -150 -240 -172 -243 -442 -348 -441 -591 -5 -127 -642 -695 -730 -481 -451 -454 -525 -595 -682 -716 -730 -827 -848 -63 0 0 0 0 0 0 0 0 0 0 0 0 0 0 0 0 0 0
0 -137 -169 -219 -35 -296 -8 -434 -443 -175 0 0 -246 -650 -566 -425 -399 -383 -442 -509 -509 -504 -561 -719 -844 -863 0 0 0 0 0 0 0 0 0 0 0 0 0 0 0 0 0 0
0 -132 -224 -247 -153 -109 -294 -336 -418 -320 0 -650 -494 0 -405 -440 -481 -439 -411 -527 -511 -370 -515 -417 0 0 0 0 0 0 0 0 0 0 0 0 0 0 0 0 0 0 0 0
-15 0 0 0 0 -271 -286 -295 -148 -400 -396 -474 -209 0 -417 -377 -537 -564 -447 -549 -517 0 0 0 0 0 0 0 0 0 0 0 0 0 0 0 0 0 0 0 0 0 0 0
Wind_Speed
2 4 7 12 6 6 2 4 5 7 7 2 7 9 15 18 16 14 11 12 15 16 18 15 11 11 9 7 8 12 11 10 8 3 3 1 2 1 1 3 4 4 3 3
5 7 8 10 6 6 5 4 6 3 4 0 5 5 8 10 17 15 15 14 13 10 9 10 10 11 11 10 10 9 11 11 9 3 3 3 3 2 2 3 4 5 4 3
8 6 4 2 3 1 3 5 4 3 4 1 3 5 6 7 7 7 6 10 13 15 16 13 13 15 13 12 15 13 12 11 7 8 3 2 3 2 1 1 2 2 4 5
6 4 7 4 4 6 7 4 8 7 5 8 4 8 6 7 9 10 13 9 15 14 16 14 16 15 16 15 12 13 11 12 8 8 5 5 5 3 2 1 1 3 4 4
10 2 4 4 7 5 13 3 11 14 6 5 1 3 10 0 8 10 15 16 12 16 16 16 18 18 16 11 11 8 10 11 10 9 7 5 3 3 2 2 3 5 5 5
8 3 2 7 2 7 5 4 5 5 5 2 7 10 8 6 17 6 13 17 13 12 16 15 13 11 8 8 7 7 8 8 10 9 8 8 7 4 2 1 2 3 4 3
6 6 4 4 5 2 3 7 4 3 1 6 4 7 15 6 8 11 17 14 9 10 13 14 14 12 10 11 9 8 7 6 6 7 7 7 6 5 5 3 3 4 3 2
5 10 7 4 8 8 6 9 7 5 4 5 6 7 10 5 8 6 3 7 7 8 12 17 18 16 13 13 10 8 9 7 8 7 7 6 6 4 2 4 5 4 3 3
7 8 7 4 4 7 1 4 5 7 4 2 3 8 9 1 7 4 6 6 7 8 12 16 14 15 13 13 12 10 10 6 8 7 6 7 6 7 6 7 6 4 5 4
8 4 7 7 4 2 8 6 2 3 3 5 5 5 7 6 10 8 8 11 11 7 9 11 13 13 11 12 11 11 10 12 8 8 8 8 8 7 7 7 6 6 5 5
6 6 9 2 5 7 3 1 3 6 6 7 4 9 10 11 14 14 14 12 11 12 8 12 12 12 13 13 13 13 12 11 9 9 9 10 8 8 8 7 6 6 5 5
4 5 7 14 5 4 6 8 8 7 6 3 3 10 5 12 7 6 8 8 8 12 10 10 14 16 16 15 14 14 12 12 10 10 11 11 10 8 8 6 6 6 6 6
3 2 2 11 5 3 5 5 5 4 4 9 7 10 5 6 5 6 8 7 8 13 14 12 13 14 14 15 15 13 12 12 11 11 12 11 11 9 7 7 7 6 7 6
3 1 4 8 10 4 5 4 5 6 4 4 8 10 7 8 8 8 7 6 10 14 17 16 15 15 14 15 15 14 12 12 13 12 13 11 10 9 8 7 7 7 6 7
4 2 5 7 6 5 5 5 6 6 6 6 6 9 11 12 14 17 10 9 13 14 16 17 16 16 15 14 14 13 13 12 12 11 12 10 9 9 9 8 7 7 7 5
6 4 5 7 3 6 6 6 6 4 4 5 3 8 6 5 7 6 12 17 17 17 16 16 15 16 17 17 16 14 13 12 13 12 12 11 11 10 8 7 7 7 7 6
1 2 4 7 3 6 3 8 5 5 8 3 4 6 8 8 8 13 11 15 17 19 20 20 20 18 16 15 16 15 15 13 12 13 12 12 11 10 7 7 7 7 7 5
4 3 2 4 7 1 6 8 5 13 7 7 5 8 12 15 13 7 12 18 16 17 18 17 14 12 10 9 11 11 14 13 14 13 12 11 12 10 8 8 7 6 4 5
6 5 1 2 3 6 5 8 6 5 3 7 11 15 16 12 3 3 10 15 21 16 12 12 13 14 13 14 9 9 8 10 12 13 12 11 11 11 8 7 7 4 5 3
4 3 6 3 2 3 3 10 3 6 3 12 13 13 14 11 1 6 4 2 12 16 17 19 18 18 17 16 16 15 10 10 11 13 12 11 10 10 9 8 7 4 3 3
5 3 5 4 4 7 5 10 7 8 7 15 11 14 12 5 6 8 4 11 17 18 21 21 21 20 19 20 22 19 14 14 10 10 10 9 9 9 8 7 4 5 4 4
4 1 2 1 2 2 8 5 9 7 7 7 10 6 8 8 11 5 6 16 22 23 23 21 18 17 18 17 16 19 16 11 11 12 11 9 8 7 6 8 6 5 5 4
1 5 4 5 5 3 3 2 3 5 5 7 6 9 6 6 6 4 7 12 14 18 17 16 16 16 13 13 13 17 13 13 12 12 10 8 7 6 6 6 6 3 4 4
2 3 3 4 5 6 5 3 4 5 8 11 8 7 4 4 9 8 5 10 11 13 13 9 14 13 13 14 15 15 15 14 14 12 10 8 7 5 5 4 4 4 4 4
5 5 3 5 7 8 5 6 5 7 11 8 11 7 0 3 2 10 6 4 5 2 2 8 12 14 12 11 9 13 15 15 13 12 10 9 6 6 5 4 5 5 5 5
5 7 4 7 7 5 7 7 3 6 2 9 10 8 3 5 4 4 12 4 3 3 1 5 9 11 11 12 12 8 8 12 12 11 8 8 6 5 4 4 3 8 10 9
Wind_Direction
353 114 171 222 198 218 194 172 224 271 167 146 188 156 177 193 210 214 211 213 205 212 213 206 171 179 139 159 171 193 178 177 172 161 139 155 185 183 178 195 231 206 189 196
11 234 218 157 202 232 210 189 245 309 108 117 176 206 208 195 211 211 212 215 216 207 196 188 163 168 178 178 194 186 186 175 177 147 126 168 177 193 185 201 228 249 230 231
187 216 104 190 124 277 262 230 209 198 137 53 110 283 219 233 229 231 237 231 225 202 192 180 178 182 180 186 197 191 178 174 157 161 127 113 86 88 35 287 232 250 199 215
241 222 231 274 269 140 285 212 252 180 150 220 151 269 264 205 234 230 223 218 218 203 198 178 178 181 188 193 192 189 166 159 156 148 150 178 158 164 197 164 317 70 56 57
244 257 195 170 227 151 248 228 251 196 150 107 204 70 271 349 252 222 221 225 219 195 190 180 186 184 186 170 178 170 158 157 160 156 162 179 180 170 171 193 74 82 65 61
242 288 177 216 235 178 263 291 15 37 117 108 228 176 280 197 227 215 226 222 206 205 192 183 185 159 149 145 141 141 152 158 167 164 174 176 183 173 208 136 105 83 63 47
310 257 250 209 301 94 112 62 314 8 77 208 224 136 238 258 227 201 215 213 183 194 189 172 175 163 157 156 157 150 154 156 155 167 162 165 166 182 210 144 128 122 100 46
185 302 181 195 182 210 199 159 160 226 217 244 154 230 250 192 256 224 246 214 157 195 183 182 179 171 168 158 152 151 151 148 148 154 155 153 135 132 129 126 118 115 107 96
162 267 287 182 161 120 289 207 203 105 10 77 242 294 308 226 246 212 188 175 201 200 190 184 173 173 163 155 153 150 138 135 137 136 131 120 113 108 114 102 99 102 104 111
228 257 214 259 143 245 157 179 329 2 177 235 282 271 239 271 222 207 198 213 220 181 186 179 171 165 152 148 144 136 143 149 142 131 128 126 118 111 106 99 101 101 91 85
150 135 276 44 176 224 295 229 78 130 137 174 207 260 217 224 232 194 205 194 189 194 179 170 171 162 146 144 145 145 146 144 142 131 129 118 115 112 102 106 109 102 92 95
224 171 208 222 239 201 167 208 155 132 259 183 168 269 230 222 245 166 207 185 187 187 165 167 166 152 147 150 152 149 151 147 146 139 132 129 122 116 112 112 108 110 111 95
304 296 343 324 352 343 193 191 160 138 77 197 154 257 316 296 188 176 180 204 175 166 152 152 159 152 151 153 152 147 144 142 142 141 136 130 128 125 121 121 117 111 113 104
130 123 172 211 212 180 161 213 171 124 112 199 215 246 256 258 218 192 184 190 156 169 163 158 160 156 156 153 146 142 139 145 143 143 132 133 131 127 122 115 113 112 112 111
56 45 340 294 263 272 185 206 168 179 191 163 258 201 239 240 195 206 161 151 163 169 165 169 164 157 152 147 141 135 135 143 139 134 128 133 126 125 123 122 124 121 114 114
350 308 11 298 339 240 269 226 215 187 164 247 256 265 255 331 107 150 190 168 178 178 174 170 165 157 154 152 148 140 141 140 138 133 134 136 132 131 131 133 133 122 117 105
132 44 32 284 330 256 291 228 185 99 40 334 16 280 315 272 202 194 187 191 192 183 175 171 171 166 161 148 147 148 142 137 135 136 142 141 137 134 139 136 134 138 144 133
194 133 144 256 326 359 243 335 353 98 73 16 292 296 307 272 244 241 202 187 186 185 179 173 160 128 125 132 130 131 140 145 140 144 148 145 141 137 144 142 149 151 149 165
186 126 177 156 252 287 18 7 345 31 337 7 329 323 323 326 58 264 190 201 194 178 140 130 132 127 118 118 112 124 139 145 143 149 153 153 147 145 150 155 158 160 144 158
61 29 138 151 256 251 225 303 238 202 234 342 340 317 321 335 135 251 277 176 127 133 141 139 132 127 127 137 136 143 168 164 167 160 158 152 150 148 157 166 162 149 146 187
340 9 201 169 201 285 294 313 348 66 264 317 316 307 307 308 236 287 161 134 140 144 143 138 143 150 151 158 159 155 165 173 169 142 146 146 149 153 160 166 146 147 167 174
153 119 297 320 165 221 337 352 93 218 289 265 300 294 290 274 268 194 151 147 146 150 150 149 147 156 168 168 167 140 164 154 153 144 147 151 146 165 162 168 156 146 169 184
248 173 194 178 233 266 320 312 201 168 262 298 304 298 308 360 35 18 136 140 144 146 151 158 151 152 164 165 176 136 151 154 150 147 150 150 154 165 170 161 149 142 184 196
284 182 184 28 270 240 283 242 228 211 234 281 291 290 360 36 96 76 84 124 146 167 161 143 142 154 154 164 168 150 152 148 146 150 152 149 157 169 160 152 161 184 195 211
224 145 197 256 281 286 257 223 207 234 252 274 284 284 266 157 105 117 99 51 354 304 199 139 152 153 161 139 126 144 152 150 150 145 152 158 161 167 163 194 183 200 231 190
201 221 185 237 239 216 260 273 231 238 215 267 277 289 219 170 201 149 130 130 98 106 342 100 129 135 138 131 127 145 158 149 144 145 158 165 158 166 178 189 231 246 235 226